User: anonymous   Login
Location: ????????
(55.0808°N, 38.5463°E)
Time: 06:38:57
(UTC+00:00)
Language:

Gbstr 26 Del rocket - Orbit

View from above orbital plane
View from above orbital plane
View from above satellite
View from above satellite

Ground track
Ground track

The orbit data is extracted from the following two-line orbital elements,

1 25876U 99041E   24166.54358461  .00000875  00000-0  18303-3 0  9994
2 25876  51.7675 304.1360 0516557 284.2062  70.2031 14.08204148273682
Epoch (UTC): 14 June 2024 13:02:45
Eccentricity: 0.0516557
inclination: 51.7675°
perigee height: 491 km
apogee height: 1240 km
right ascension of ascending node: 304.1360°
argument of perigee: 284.2062°
revolutions per day: 14.08204148
mean anomaly at epoch: 70.2031°
orbit number at epoch: 27368

The dashed part of the orbit path shows where the satellite is in the earth's shadow,  

DLR